200 serials | emicsoft flv converter 4.1.18 user name and registration code

Date Name Success Rate
2011-09-08 10:56:11 FontLook v3.1 Registration Code 86%
2011-09-08 11:42:43 Nic O'Matic 1.6 Registration Code 50%
2011-09-08 11:42:43 Nic O'Matic v1.6 Registration Code 55%
2011-09-08 12:54:14 TimeSlips 10.5 enterprise - with registration code! 0%
2012-12-13 05:12:00 Registration Code For PDFZilla Giveaway 0%
2011-09-08 11:30:16 MediaBlaze 98 v1.01 Win95/NT User: delphic Registration 0%
2012-12-13 05:12:00 Registration code:-826510-16101-266644 71%
2011-09-08 10:55:02 Firedoor v1.3 5 user code User 73%
2011-09-08 10:25:04 CDRWIN v3.3 Reg-Code User 0%
2009-10-22 23:50:35 WinAce Free User's Code 54%
2011-09-08 13:17:33 WinAce Free User's Code 0%
2011-09-08 10:49:07 Email Chomper v2.0 Single-User Code 0%
2011-09-08 10:44:16 DLSoft d Barcode NET Maxi Code Multi User 1.61 90%
2011-09-08 10:44:16 DLSoft d Barcode NET Maxi Code Single User 1.61 0%
2012-12-13 05:12:00 Registration key for x-3gp-video-converter-38540 54%
2012-12-13 13:12:40 Total Image Converter Registration Key 57%
2011-09-08 10:42:09 DAS Registration 1.5.2 69%
2011-09-08 10:42:09 DAS Registration For CW5 0%
2011-09-08 10:42:09 DAS Registration v1.5.2 0%
2009-10-17 06:27:02 Lazarus Registration DLL V1.0 59%
2009-10-22 23:48:48 MemoriesonTV Registration 0%
2009-10-22 23:49:42 Registration Wizard 40%
2011-09-08 10:06:47 AnetHelpTool v4.02 Registration 60%
2011-09-08 10:22:13 ByeLines Registration 60%
2011-09-08 10:57:42 Ftgate Registration 63%
2011-09-08 11:15:16 Infodex v2.10 Registration 0%
2011-09-08 11:25:08 Lazarus Registration DLL v1.0 0%
2011-09-08 11:27:46 Mac Opener v3.0 Registration 57%
2011-09-08 11:32:59 mIRC v4.5+ Registration 60%
2011-09-08 11:32:59 mIRC v4.52 Registration 60%
2011-09-08 12:37:02 Quant v2.0 Registration 0%
2011-09-08 12:41:14 Registration Suite 1.0 60%
2011-09-08 12:41:14 Registration Suite v1.0 60%
2011-09-08 12:41:14 Registration Wizard Pro 5.01 46%
2011-09-08 12:41:14 Registration Wizard Pro v5.01 60%
2011-09-08 13:18:59 WinHacker 95 v2.02 Registration 57%
2012-12-13 05:12:00 Registration Key : 526EFEF086E09600449E667EA2DAE8E2E6D642BC 83%
2009-10-22 23:27:21 Ardamax Keylogger 2.9 Registration 56%
2009-10-22 23:48:49 Microsoft Registration Hacker - 39%
2009-10-22 23:49:57 SoudForge ALL (No Registration Requiered) 0%
2009-10-22 23:50:26 Valve's Registration Armor Key-Gen 60%
2011-09-08 10:21:42 Browserola v1.01 Temp. Registration 0%
2011-09-08 11:31:51 Microsoft Registration Hacker 0%
2011-09-08 11:31:51 Microsoft Registration Hacker - 0%
2011-09-08 11:31:51 Microsoft Registration HackerMSREGHACK 0%
2011-09-08 11:32:07 Microstation v5.xx.xx & 95 FULL REGISTRATION 48%
2011-09-08 12:34:57 PolyTrans V1.2E Registration Activator CD-Key 62%
2011-09-08 12:34:57 PolyView v2.9b16 Registration 0%
2011-09-08 12:54:09 Time Registration (German) 1.10 0%
2011-09-08 12:59:30 Super Collapse Registration 100%
2011-09-08 13:23:15 Yipe! II for Windows Registration #154 0%
2012-12-13 08:49:53 Softwarenetz Time Registration v1.10 0%
2012-12-13 08:49:56 Softwarenetz Time Registration v1.14 0%
2012-12-13 15:34:10 Valve's Registration Armor Key-Gen 0%
2009-10-22 23:48:17 Internet Download Manager Registration 50%
2011-09-08 10:25:56 Cheyenne Bitware V4.0 Registration Number 60%
2011-09-08 11:31:51 Microsoft Registration Hacker MSREGHACK 80%
2011-09-08 11:31:51 Microsoft Visual Basic 5 registration cd key 72%
2012-12-12 08:07:32 Download avast 5.0.667 Antivirus registration 0%
2009-10-22 23:49:02 Norton Internet Security 2005 Registration Guide 0%
2011-09-08 09:58:40 Acoustica Mixcraft v1.10 Build 15 Registration Info by MaBi 60%
2012-12-12 19:40:26 Microsoft Visual Basic 2008 Express Edition Registration key 20%
2009-10-22 23:50:20 User 3.0 0%
2011-09-08 10:42:07 DAO v3.4 32-Bit User 0%
2011-09-08 11:09:16 Hot Dog Pro 32 v3.0.7 User 0%
2011-09-08 13:16:22 Web Zip v1.30 User 0%
2009-10-17 06:19:27 Bar Code Pro V6.02 48%
2009-10-17 06:20:25 Code Co-op V4.5c 39%
2009-10-17 06:20:25 Code VBA V2.0 41%
2009-10-17 06:20:25 CODE-VB V3.03 23%
2009-10-22 23:44:48 Bar Code 128 3.0 0%
2009-10-22 23:44:48 Bar Code 3 Of 9 2.7 0%
2009-10-22 23:44:48 Bar Code 3 Of 9 3.0b 0%
2009-10-22 23:44:48 Bar Code Pro V6.02 0%
2009-10-22 23:44:48 Bar Code Pro V6.11 0%
2009-10-22 23:45:53 Code Co-op 4.0h 27%
2009-10-22 23:45:53 Code Co-op 4.1 44%
2009-10-22 23:45:53 Code Co-op 4.1a 0%
2009-10-22 23:45:53 Code Co-op 4.2 0%
2011-09-08 10:18:52 Bar Code Pro UPC v1.0 mac 54%
2011-09-08 10:18:52 Bar Code 3 of 9 v3.0b 0%
2011-09-08 10:18:52 Bar Code Pro 6.02 0%
2011-09-08 10:18:52 Bar Code 3 of 9 v2.7 0%
2011-09-08 10:18:52 Bar Code 3 of 9 3.0b 0%
2011-09-08 10:18:48 Bar Code 128 v3.0 0%
2011-09-08 10:18:48 Bar Code 3 of 9 2.7 55%
2011-09-08 10:18:48 Bar Code 128 3.0 0%
2011-09-08 10:27:32 Code 55%
2011-09-08 10:27:32 Code co-op 3.1 0%
2011-09-08 10:27:32 Code Co-Op 3.3b 0%
2011-09-08 10:27:32 Code Co-op 4.0h 0%
2011-09-08 10:27:32 Code Co-op 4.1 60%
2011-09-08 10:27:32 Code Co-op 4.1a 0%
2011-09-08 10:27:32 Code Co-op 4.2 57%
2011-09-08 10:27:32 Code Co-op 4.5c 55%
2011-09-08 10:27:32 Code co-op v3.1 0%
2011-09-08 10:27:32 Code Co-Op v3.3b 61%
2011-09-08 10:27:32 Code Co-op v4.1 0%
2011-09-08 10:27:32 Code Co-op v4.2 0%
2011-09-08 10:27:32 Code Co-op v4.5c 40%
2011-09-08 10:27:36 Code VBA 2.0 0%
2011-09-08 10:27:36 Code Wiz 3.0 0%
2011-09-08 10:27:36 Code Wiz v3.0 0%
2011-09-08 10:27:36 CODE-VB 3.03 57%
2011-09-08 10:27:36 Code:law 0%
2011-09-08 10:46:43 EAN Bar Code 0%
2011-09-08 10:49:57 ESS Code 0%
2011-09-08 10:49:57 ESS Code v6.7 Win 0%
2011-09-08 10:49:57 ESS Code v7.7 and v7.8 53%
2011-09-08 10:49:57 ESS-Code 0%
2011-09-08 10:49:57 ESS-Code 7.x 0%
2011-09-08 10:49:57 ESS-Code v7.5 59%
2011-09-08 10:49:57 ESS-Code v7.x 0%
2011-09-08 10:49:57 ESS-CODE v7.x WIN 0%
2011-09-08 10:49:57 ESS-Code/32 v7.8 0%
2011-09-08 10:55:14 Fix It v1.0 Code 100%
2011-09-08 10:55:14 Fix-It v2.30 Reg Code 56%
2011-09-08 11:01:54 G-Code-It 3.0 0%
2011-09-08 11:01:54 G-Code-It v3.0 0%
2011-09-08 11:07:16 Hit-N-Run v1.4 Code 0%
2011-09-08 13:23:47 ZIP 95 v1.02 REG CODE 0%
2009-10-17 06:34:15 User Control V4.412 0%
2009-10-17 06:34:15 User Control V4.412 0%
2009-10-22 23:27:12 Act 6.0.2.720 Five User Pack 0%
2009-10-22 23:49:00 Netpeeker V1.60 Five User 0%
2009-10-22 23:50:20 User Control V4.412 0%
2009-10-22 23:50:20 User Trace 1.01 0%
2009-10-22 23:50:20 User Version 6.0.107 0%
2009-10-22 23:50:20 User Version 6.0.108 0%
2011-09-08 09:58:01 ACDSEE 32 v2.2 User 0%
2011-09-08 09:59:15 Act 6.0.2.720 Five User Pack 0%
2011-09-08 09:59:17 Act v6.0.2.720 Five User Pack 0%
2011-09-08 10:06:53 AniMagic v1.02c User 0%
2011-09-08 10:07:02 AnonMail v1.3 user 0%
2011-09-08 10:07:20 AnyFolder User 0%
2011-09-08 10:25:04 CDRWIN v3.5a USER 0%
2011-09-08 10:25:06 CDValet v3.30 User 0%
2011-09-08 10:32:16 CrowCall V1.10 User 0%
2011-09-08 10:43:40 Direct Net v1.1 User 0%
2011-09-08 10:49:27 End User Desktop v7.0 SP 2 0%
2011-09-08 10:51:00 EZ-Split v2.0 User 0%
2011-09-08 10:54:32 File-Ex v2.11 User 0%
2011-09-08 10:55:18 Flash 2 User 0%
2011-09-08 11:02:52 GoalMaker v2.10 User 0%
2011-09-08 11:03:04 GoldMine 10 user for Win'95 0%
2011-09-08 11:03:04 GoldMine 10 user for Win'95 0%
2011-09-08 11:09:14 Hot Chilli V2.0 User Key 0%
2011-09-08 11:09:16 Hot Dog Express V1.03 User 0%
2011-09-08 11:09:16 Hot Dog express1.02 User 0%
2011-09-08 11:10:10 HyperCam v1.30.00 User 0%
2011-09-08 11:10:17 Hypersnap-DX v3.00 User 0%
2011-09-08 11:14:00 IEWatch Five User 2.6.0.6 0%
2011-09-08 11:14:00 IEWatch Ten User 2.6.0.6 0%
2011-09-08 11:14:00 IEWatch Two User 2.6.0.6 0%
2011-09-08 11:18:28 JackHammer v1.01 User 0%
2011-09-08 11:18:28 JackHammer v1.02 User 0%
2011-09-08 11:25:03 Last Bit User Tracker 1,3 0%
2011-09-08 11:26:11 Linkbot v3.0 to v3.0d + User 0%
2011-09-08 11:27:31 Lunar Ftp v1.1 ? USER 0%
2011-09-08 11:32:35 MindMan v3.0 user 0%
2011-09-08 11:33:01 Mirc v4.72 User 0%
2011-09-08 11:33:01 MIRC v5.11 User 0%
2011-09-08 11:41:42 NetHelper v2.01 User 0%
2011-09-08 11:42:57 NJWin v1.6 User 0%
2011-09-08 12:34:12 PixShow v3.7 User 0%
2011-09-08 12:43:31 RGB Editor v3.0 User 0%
2011-09-08 12:51:37 Take5 v1.00 User 100%
2011-09-08 12:54:28 TinyCalc v1.02 User 0%
2011-09-08 12:54:43 Tommycad User 0%
2011-09-08 12:54:45 ToolBar v4.0 User 0%
2011-09-08 13:00:02 SuperMonitor User 0%
2011-09-08 13:00:48 SysDate v1.1 User 0%
2011-09-08 13:00:48 SysLaunch v1.0 User 0%
2011-09-08 13:08:06 UltraEdit-32 v1.40a User 0%
2011-09-08 13:08:50 User Commander 1.3 0%
2011-09-08 13:13:13 Vpop3 v1.1.0 Win 1 user 0%
2011-09-08 13:13:13 Vpop3 v1.1.0 Win 10 user 0%
2011-09-08 13:13:13 Vpop3 v1.1.0 Win 5 user 0%
2011-09-08 13:16:32 WebDisk v1.0 Win User 0%
2011-09-08 13:16:39 Webhacker v1.2 User 0%
2011-09-08 13:17:51 WINCDR v3.3d User 0%
2011-09-08 13:18:02 WinDownload v3.6 User 0%
2011-09-08 13:18:02 Windownload v4.0 user 0%
2011-09-08 13:18:56 WinGroove 09.E User ID 0%
2011-09-08 13:18:59 WinHex 12.05 SR 5 user 0%
2011-09-08 13:19:06 WinInstall v4.0 100 User CD-RIP 0%
2011-09-08 13:22:33 XferPro 32 v2.00 User 0%
2012-12-12 06:10:38 Colossus User 10%
2009-10-17 06:19:27 Bar Code Pro V6.11 MacOSX-ART 12%
2009-10-17 06:20:25 Code Visualizer V2.25 57%
2009-10-17 06:20:25 Code Visualizer V2.28 41%
2009-10-17 06:20:25 Code Visualizer V2.35 5%
2009-10-17 06:20:25 Code Visualizer V2.35 11%
2009-10-17 06:20:25 Code Visualizer V2.52 54%
2009-10-17 06:20:25 Code Visualizer V2.64 52%
2009-10-17 06:20:25 Code Visualizer V2.83 22%
2009-10-17 06:20:25 Code Visualizer V2.87 19%
2009-10-17 06:20:25 Code Visualizer V2.97 71%
2009-10-17 06:20:25 Code Visualizer V2.99 26%
2009-10-17 06:20:25 Code Visualizer V3.01 49%